Owosso, MI

8:32 AM EDT on August 27, 2016 (GMT -0400)
Owosso

Weather History for KRNP - November, 2013

Change the Weather History Date:

Saturday, November 9, 2013

  Actual Average (KFNT) Record (KFNT)
Temperature  
Mean Temperature 46 °F 42 °F  
Max Temperature 53 °F 50 °F 73 °F (1999)
Min Temperature 38 °F 33 °F 14 °F (1991)
Degree Days  
Heating Degree Days 20 24  
Month to date heating degree days 199  
Since 1 July heating degree days 895  
Cooling Degree Days 0 0  
Month to date cooling degree days 0  
Year to date cooling degree days 531  
Moisture  
Dew Point 34 °F    
Average Humidity 60    
Maximum Humidity 69    
Minimum Humidity 48    
Precipitation  
Precipitation 0.00 in 0.09 in 1.58 in (2005)
Month to date precipitation 0.81  
Year to date precipitation 27.59  
Snow  
Snow 0.00 in 0.00 in 2.60 in (1971)
Month to date snowfall 0.2  
Since 1 July snowfall 0.6  
Since 1 September snowfall 0.6  
Snow Depth -    
Sea Level Pressure  
Sea Level Pressure 29.88 in    
Wind  
Wind Speed 11 mph (SW)    
Max Wind Speed 22 mph    
Max Gust Speed 33 mph    
Visibility 10 miles    
Events      
T = Trace of Precipitation, MM = Missing Value Source: NWS Daily Summary

Daily Weather History Graph

Daily Weather History Graph

Search for Another Location

Airport or City:

Trip Planner

Search our weather history database for the weather conditions in past years. The results will help you decide how hot, cold, wet, or windy it might be!

Date:

Astronomy

Nov. 09, 2013 Rise Set
Actual Time 7:21 AM EST 5:18 PM EST
Civil Twilight 6:51 AM EST 5:48 PM EST
Nautical Twilight 6:17 AM EST 6:22 PM EST
Astronomical Twilight 5:44 AM EST 6:56 PM EST
Moon 12:56 PM EST (11/9) 11:50 PM EST (11/9)
Length of Visible Light 10h 57m
Length of Day
9h 57m
Waxing Crescent, 44% of the Moon is Illuminated
Nov 9
Waxing Crescent
Nov 10
First Quarter
Nov 17
Full
Nov 25
Last Quarter
Dec 2
New

Hourly Weather History & Observations

Time (EST) Temp. Windchill Dew Point Humidity Pressure Visibility Wind Dir Wind Speed Gust Speed Precip Events Conditions
12:15 AM 38.8 °F 35.4 °F 29.5 °F 69% 30.13 in 10.0 mi SSE 4.6 mph - N/A   Clear
12:35 AM 39.2 °F 35.9 °F 29.7 °F 69% 30.12 in 10.0 mi SSE 4.6 mph - N/A   Clear
12:55 AM 39.7 °F 35.6 °F 29.8 °F 68% 30.12 in 10.0 mi SSE 5.8 mph - N/A   Clear
1:15 AM 39.7 °F 34.9 °F 30.2 °F 69% 30.10 in 10.0 mi SSE 6.9 mph - N/A   Clear
1:34 AM 39.7 °F 34.9 °F 30.2 °F 69% 30.09 in 10.0 mi SSE 6.9 mph - N/A   Clear
1:55 AM 40.1 °F 35.3 °F 30.6 °F 69% 30.08 in 10.0 mi SSE 6.9 mph - N/A   Scattered Clouds
2:15 AM 40.3 °F 35.5 °F 30.6 °F 68% 30.07 in 10.0 mi SSE 6.9 mph - N/A   Overcast
2:34 AM 41.0 °F 36.4 °F 30.7 °F 67% 30.07 in 10.0 mi SSE 6.9 mph - N/A   Overcast
2:55 AM 41.5 °F 36.4 °F 30.2 °F 64% 30.05 in 10.0 mi SE 8.1 mph - N/A   Overcast
3:15 AM 41.4 °F 35.2 °F 30.2 °F 65% 30.03 in 10.0 mi SE 10.4 mph 16.1 mph N/A   Overcast
3:34 AM 41.9 °F 36.9 °F 29.8 °F 62% 30.02 in 10.0 mi SSE 8.1 mph 16.1 mph N/A   Overcast
3:55 AM 42.3 °F 36.3 °F 29.5 °F 61% 30.00 in 10.0 mi SE 10.4 mph 17.3 mph N/A   Overcast
4:15 AM 42.8 °F 37.0 °F 29.3 °F 59% 29.97 in 10.0 mi SE 10.4 mph - N/A   Overcast
4:35 AM 43.0 °F 35.7 °F 28.9 °F 58% 29.96 in 10.0 mi SSE 15.0 mph 19.6 mph N/A   Scattered Clouds
4:55 AM 42.8 °F 35.1 °F 29.1 °F 58% 29.94 in 10.0 mi South 16.1 mph 21.9 mph N/A   Clear
5:14 AM 42.8 °F 36.2 °F 29.3 °F 59% 29.93 in 10.0 mi South 12.7 mph 21.9 mph N/A   Scattered Clouds
5:35 AM 42.1 °F 36.1 °F 29.8 °F 62% 29.92 in 10.0 mi South 10.4 mph 21.9 mph N/A   Scattered Clouds
5:55 AM 41.9 °F 34.6 °F 29.8 °F 62% 29.91 in 10.0 mi SSE 13.8 mph 20.7 mph N/A   Scattered Clouds
6:14 AM 41.7 °F 35.6 °F 29.7 °F 62% 29.91 in 10.0 mi South 10.4 mph - N/A   Clear
6:35 AM 41.9 °F 35.9 °F 29.7 °F 62% 29.90 in 10.0 mi South 10.4 mph 18.4 mph N/A   Clear
6:54 AM 42.4 °F 35.7 °F 29.7 °F 61% 29.89 in 10.0 mi South 12.7 mph 19.6 mph N/A   Scattered Clouds
7:15 AM 43.7 °F 37.3 °F 29.5 °F 57% 29.87 in 10.0 mi South 12.7 mph 20.7 mph N/A   Overcast
7:35 AM 43.9 °F 37.5 °F 29.3 °F 57% 29.88 in 10.0 mi South 12.7 mph 25.3 mph N/A   Overcast
7:55 AM 44.1 °F 36.5 °F 29.8 °F 57% 29.87 in 10.0 mi South 17.3 mph 24.2 mph N/A   Overcast
8:15 AM 44.1 °F 36.8 °F 29.8 °F 57% 29.86 in 10.0 mi South 16.1 mph 24.2 mph N/A   Mostly Cloudy
8:34 AM 44.4 °F 37.5 °F 30.0 °F 57% 29.86 in 10.0 mi South 15.0 mph 28.8 mph N/A   Clear
8:55 AM 45.7 °F 39.5 °F 30.0 °F 54% 29.86 in 10.0 mi South 13.8 mph 21.9 mph N/A   Clear
9:15 AM 46.8 °F - 30.9 °F 54% 29.85 in 10.0 mi South 13.8 mph 21.9 mph N/A   Clear
9:34 AM 48.6 °F - 30.9 °F 51% 29.84 in 10.0 mi SSW 12.7 mph 23.0 mph N/A   Clear
9:55 AM 49.3 °F - 31.6 °F 51% 29.83 in 10.0 mi SSW 12.7 mph 18.4 mph N/A   Clear
10:15 AM 51.1 °F - 32.2 °F 48% 29.81 in 10.0 mi SW 11.5 mph 19.6 mph N/A   Clear
10:34 AM 51.4 °F - 32.9 °F 49% 29.81 in 10.0 mi SSW 10.4 mph 20.7 mph N/A   Clear
10:55 AM 51.3 °F - 33.1 °F 50% 29.81 in 10.0 mi SW 15.0 mph 21.9 mph N/A   Clear
11:15 AM 51.6 °F - 33.8 °F 51% 29.80 in 10.0 mi SW 12.7 mph 19.6 mph N/A   Clear
11:34 AM 51.8 °F - 34.2 °F 51% 29.79 in 10.0 mi SW 16.1 mph 23.0 mph N/A   Clear
11:55 AM 52.2 °F - 34.3 °F 51% 29.78 in 10.0 mi SW 20.7 mph 26.5 mph N/A   Clear
12:15 PM 52.9 °F - 35.1 °F 51% 29.78 in 10.0 mi SW 16.1 mph 26.5 mph N/A   Clear
12:35 PM 53.8 °F - 35.4 °F 50% 29.78 in 10.0 mi SW 18.4 mph 28.8 mph N/A   Scattered Clouds
12:55 PM 53.1 °F - 36.1 °F 53% 29.77 in 10.0 mi SW 10.4 mph 18.4 mph N/A   Overcast
1:14 PM 53.6 °F - 36.9 °F 53% 29.76 in 10.0 mi WSW 12.7 mph 19.6 mph N/A   Overcast
1:35 PM 53.1 °F - 37.8 °F 56% 29.77 in 10.0 mi SW 12.7 mph 26.5 mph N/A   Overcast
1:55 PM 52.7 °F - 38.3 °F 58% 29.77 in 10.0 mi WSW 13.8 mph 24.2 mph N/A   Overcast
2:14 PM 52.3 °F - 39.2 °F 61% 29.77 in 10.0 mi WSW 15.0 mph 25.3 mph N/A   Overcast
2:35 PM 51.8 °F - 39.6 °F 63% 29.78 in 10.0 mi WSW 12.7 mph 24.2 mph N/A   Overcast
2:55 PM 51.8 °F - 39.2 °F 62% 29.78 in 10.0 mi WSW 18.4 mph 28.8 mph N/A   Overcast
3:15 PM 51.4 °F - 39.2 °F 63% 29.78 in 10.0 mi WSW 15.0 mph 23.0 mph N/A   Overcast
3:35 PM 51.1 °F - 39.2 °F 64% 29.79 in 10.0 mi WSW 21.9 mph 33.4 mph N/A   Overcast
3:55 PM 50.9 °F - 39.2 °F 64% 29.80 in 10.0 mi WSW 20.7 mph 28.8 mph N/A   Overcast
4:15 PM 51.1 °F - 39.2 °F 64% 29.80 in 10.0 mi WSW 12.7 mph 25.3 mph N/A   Overcast
4:35 PM 51.1 °F - 38.8 °F 63% 29.81 in 10.0 mi WSW 13.8 mph 25.3 mph N/A   Overcast
4:54 PM 51.1 °F - 39.0 °F 63% 29.82 in 10.0 mi WSW 15.0 mph 23.0 mph N/A   Overcast
5:15 PM 51.1 °F - 39.0 °F 63% 29.82 in 10.0 mi WSW 17.3 mph 24.2 mph N/A   Overcast
5:35 PM 50.9 °F - 39.2 °F 64% 29.82 in 10.0 mi WSW 16.1 mph - N/A   Overcast
5:54 PM 51.1 °F - 39.2 °F 64% 29.83 in 10.0 mi WSW 16.1 mph 23.0 mph N/A   Overcast
6:15 PM 50.9 °F - 39.2 °F 64% 29.83 in 10.0 mi WSW 13.8 mph 18.4 mph N/A   Overcast
6:35 PM 50.9 °F - 39.2 °F 64% 29.84 in 10.0 mi WSW 12.7 mph - N/A   Overcast
6:54 PM 50.9 °F - 40.3 °F 67% 29.84 in 10.0 mi WSW 11.5 mph 17.3 mph N/A   Overcast
7:15 PM 51.1 °F - 40.5 °F 67% 29.84 in 10.0 mi WSW 12.7 mph 20.7 mph N/A   Overcast
7:35 PM 51.1 °F - 40.1 °F 66% 29.84 in 10.0 mi WSW 17.3 mph 23.0 mph N/A   Overcast
7:55 PM 51.1 °F - 39.4 °F 64% 29.84 in 10.0 mi WSW 18.4 mph 26.5 mph N/A   Overcast
8:15 PM 51.1 °F - 38.8 °F 63% 29.85 in 10.0 mi WSW 15.0 mph 23.0 mph N/A   Overcast
8:35 PM 50.9 °F - 37.8 °F 61% 29.86 in 10.0 mi West 16.1 mph 25.3 mph N/A   Overcast
8:55 PM 50.2 °F - 36.7 °F 60% 29.86 in 10.0 mi West 18.4 mph 25.3 mph N/A   Overcast
9:15 PM 50.2 °F - 35.2 °F 57% 29.87 in 10.0 mi West 16.1 mph 27.6 mph N/A   Overcast
9:34 PM 50.0 °F - 34.9 °F 56% 29.87 in 10.0 mi West 15.0 mph 27.6 mph N/A   Overcast
9:55 PM 49.3 °F - 33.4 °F 54% 29.87 in 10.0 mi West 19.6 mph 26.5 mph N/A   Overcast
10:15 PM 48.7 °F - 32.0 °F 52% 29.88 in 10.0 mi West 16.1 mph 23.0 mph N/A   Overcast
10:34 PM 48.2 °F - 32.4 °F 54% 29.88 in 10.0 mi West 16.1 mph 25.3 mph N/A   Overcast
10:55 PM 46.8 °F - 32.0 °F 57% 29.88 in 10.0 mi West 15.0 mph 26.5 mph N/A   Mostly Cloudy
11:15 PM 45.9 °F 38.8 °F 32.0 °F 58% 29.88 in 10.0 mi West 17.3 mph 21.9 mph N/A   Scattered Clouds
11:34 PM 45.5 °F 39.2 °F 32.0 °F 59% 29.89 in 10.0 mi West 13.8 mph 20.7 mph N/A   Mostly Cloudy
11:55 PM 44.8 °F 38.7 °F 31.8 °F 60% 29.89 in 10.0 mi West 12.7 mph 17.3 mph N/A   Mostly Cloudy